IRIDIUM 33 DEB, 35618

Orbit data source: Space-Track

IRIDIUM 33 DEB, 35618 is space debris in LEO originally from a launch on Sun, 14 Sep 1997 UTC launched from the Tyuratam Missile And Space Complex (TTMTR). The debris from Iridium 33, an American commercial communications satellite, has been tracked extensively since its accidental collision with the defunct Russian satellite Cosmos 2251 in 2009. This event, occurring at high speed in low Earth orbit (LEO), generated thousands of pieces of space debris, significantly increasing the risk of further collisions. The Iridium 33 debris cloud has impacted space traffic management and orbital debris mitigation strategies, making it a subject of ongoing study in space situational awareness.

Loading next visibility...
Identifier
35618, 1997-051QQ
Orbit
LEO
Country
Flag of USUS
Related business
Manufacturer
Unknown
Mission
Spacecraft
Bus & Motor
Unknown
Mass
Unknown
Launch date (UTC)
1997-09-14 (28 years ago)
Launch vehicle
Unknown
Launch site
Tyuratam Missile And Space Complex (TTMTR)
Object type
Payload
Rocket body
Debris
Shape & HBR
Unknown shape, 0.1 m
Radar Cross Section
Small (<0.1 m²)

Expand to show TLE details & history
Last TLE update: 13 hours ago

TLE from 13 hours ago
0 IRIDIUM 33 DEB
1 35618U 97051QQ  26063.46654887  .00002274  00000-0  54635-3 0  9991
2 35618  86.3417 317.7694 0030548 101.7612 258.7023 14.52714174665807
Epoch: 2026-03-04T11:11Z
TLE epoch observation values (Epoch: 2026-03-04T11:11:49.822Z)
Latitude
-0.0001°
Longitude
-12.41905°
Altitude
724.185 km
Speed
7.491 km/s
True Right ascension
21h 11m 04s
True Declination
0° 00' 00"
Sunlit
Object was in daylight at epoch
Visualization orbit readout
Latitude
Unknown
Longitude
Unknown
Altitude
Unknown
Speed
Unknown
Apparent Right ascension
Unknown
Apparent Declination
Unknown
Sunlit
N/A
Visualization observer readout
Local Sidereal Time
03:43:44
Azimuth
Unknown
Elevation
Unknown
Doppler factor
Unknown
Orbital elements
Apogee altitude
735.401 km
Perigee altitude
692.073 km
Semi-major axis
7,091.874 km
Eccentricity
0.00305
Inclination
86.3417°
RAAN
317.7694°
Arg. of periapsis
101.7612°
True anomaly
258.35929°
Mean anomaly
258.7023°
Eccentric anomaly
258.53077°
Mean motion
3.63414 °/min
Orbital period
99.06 mins
BSTAR
0.00054635
Loading maneuver chart data...
Computing Atmospheric mass density...
Loading historical data...
Loading historical data...
Loading historical data...
Loading historical data...
Loading historical data...
Loading historical data...
Loading historical data...

Documentation

Showing up to 5 results
|